Back to catalog

FALCON 9 R/B

AliveMEO
NORAD 61184·ROCKET BODY·🇺🇸 United States

Launched Sep 17, 2024 from Cape Canaveral Space Force Station

Loading…

Next Passes (next 24 hours)

TLE

FreshSource: Space-Track

Epoch: Sep 14, 2026, 04:12 UTC

1 61184U 24167C   26257.17533463  .00000010  00000-0  00000-0 0  9995
2 61184  55.1749 218.3499 0011058  15.6888 344.3021  1.72615514 12518

Track FALCON 9 R/B in real time with AllMySat

Download on the App Store